Regional Weather Roundup
Issued by NWS

Home | Current Version | Previous Version | Text Only | Print | Product List | Glossary On
Versions: 1 2 3 4 5 6 7 8 9 10 11 12 13 14 15 16 17 18 19 20 21 22 23 24 25 26 27 28 29 30 31 32 33 34 35 36 37 38 39 40 41 42 43 44 45 46 47 48 49 50
000
ASUS43 KLMK 170202
RWRKY
KENTUCKY REGIONAL WEATHER ROUNDUP
NATIONAL WEATHER SERVICE LOUISVILLE KY
900 PM EST MON JAN 16 2017

NOTE "FAIR" INDICATES FEW OR NO CLOUDS BELOW 12,000 FEET
WITH NO SIGNIFICANT WEATHER AND/OR OBSTRUCTIONS TO VISIBILITY.

KYZ001>023-026-027-061>063-070>075-170300-
WESTERN AND SOUTH CENTRAL KENTUCKY

CITY           SKY/WX    TMP DP  RH WIND       PRES   REMARKS
PADUCAH        CLOUDY    62  58  86 S10       29.97S
HENDERSON      CLOUDY    57  52  82 S6        29.98S
OWENSBORO      MOCLDY    58  54  86 SE12      30.00F
HOPKINSVILLE   CLOUDY    64  54  68 S13G20    30.02F
BOWLING GREEN  CLOUDY    65  50  58 S12       30.06F
GLASGOW        NOT AVBL
$$

KYZ024-025-028>034-038-045-046-053-170300-
NORTH CENTRAL KENTUCKY

CITY           SKY/WX    TMP DP  RH WIND       PRES   REMARKS
LOUISVILLE/SDF CLOUDY    53  51  93 CALM      30.05F FOG
LOUISVILLE/LOU CLOUDY    57  53  86 CALM      30.06F
FORT KNOX      CLOUDY    53  53 100 E3        30.04F
$$

KYZ035>037-039>044-047>052-055>060-089>105-170300-
NORTHEAST KENTUCKY

CITY           SKY/WX    TMP DP  RH WIND       PRES   REMARKS
LEXINGTON      CLOUDY    58  52  80 SE8       30.11F
COVINGTON      CLOUDY    50  50 100 E6        30.09F FOG
FRANKFORT      CLOUDY    57  52  83 SE7       30.08F
$$

KYZ054-064>069-076>088-106>120-170300-
SOUTHEAST KENTUCKY

CITY           SKY/WX    TMP DP  RH WIND       PRES   REMARKS
JACKSON        CLOUDY    59  50  72 S5        30.17F
LONDON         CLOUDY    59  50  72 SE6       30.16F
SOMERSET       NOT AVBL
MIDDLESBORO    MOCLDY    51  51  98 CALM      30.21S
MONTICELLO     CLOUDY    59  53  80 E8        30.15F
$$




USA.gov is the U.S. government's official web portal to all federal, state and local government web resources and services.